Change the Weather History Date:

Friday, November 2, 2012

  Actual Average Record
Temperature  
Mean Temperature 50 °F 55 °F  
Max Temperature 55 °F 63 °F 80 °F (2001)
Min Temperature 46 °F 47 °F 35 °F (2002)
Degree Days  
Heating Degree Days 14 10  
Month to date heating degree days 20  
Since 1 July heating degree days 229  
Cooling Degree Days 0 0  
Month to date cooling degree days 0  
Year to date cooling degree days 1664  
Moisture  
Dew Point 31 °F    
Average Humidity 49    
Maximum Humidity 63    
Minimum Humidity 37    
Precipitation  
Precipitation 0.00 in 0.10 in 0.64 in (1999)
Month to date precipitation 0.20  
Year to date precipitation 34.71  
Sea Level Pressure  
Sea Level Pressure 29.78 in    
Wind  
Wind Speed - (North)    
Max Wind Speed -    
Max Gust Speed -    
T = Trace of Precipitation, MM = Missing Value Source: NWS Daily Summary

Daily Weather History Graph

Daily Weather History Graph

Search for Another Location

Airport or City:

Trip Planner

Search our weather history database for the weather conditions in past years. The results will help you decide how hot, cold, wet, or windy it might be!

Date:

Astronomy

Nov. 02, 2012 Rise Set
Actual Time 7:35 AM EDT 6:03 PM EDT
Civil Twilight 7:08 AM EDT 6:31 PM EDT
Nautical Twilight 6:36 AM EDT 7:03 PM EDT
Astronomical Twilight 6:04 AM EDT 7:34 PM EDT
Moon 8:49 PM EDT (11/2) 10:53 AM EDT (11/2)
Length of Visible Light 11h 23m
Length of Day
10h 27m
Waning Gibbous, 87% of the Moon is Illuminated
Nov 2
Waning Gibbous
Nov 6
Last Quarter
Nov 13
New
Nov 20
First Quarter
Nov 28
Full

Hourly Weather History & Observations

Time (EDT) Temp. Dew Point Humidity Pressure Visibility Wind Dir Wind Speed Gust Speed Precip Events Conditions
12:54 AM 50.0 °F 35.1 °F 57% 29.73 in - North - - N/A   Unknown
1:54 AM 48.9 °F 33.1 °F 54% 29.71 in - North - - N/A   Unknown
2:54 AM 48.0 °F 30.9 °F 52% 29.71 in - North - - N/A   Unknown
3:54 AM 46.0 °F 30.9 °F 56% 29.72 in - North - - N/A   Unknown
4:54 AM 46.0 °F 33.1 °F 61% 29.71 in - North - - N/A   Unknown
5:54 AM 46.0 °F 34.0 °F 63% 29.74 in - North - - N/A   Unknown
6:54 AM 46.9 °F 33.1 °F 59% 29.74 in - North - - N/A   Unknown
7:54 AM 46.9 °F 34.0 °F 61% 29.75 in - North - - N/A   Unknown
8:54 AM 48.9 °F 33.1 °F 54% 29.76 in - North - - N/A   Unknown
9:54 AM 51.1 °F 32.0 °F 48% 29.79 in - North - - N/A   Unknown
10:54 AM 52.0 °F 33.1 °F 49% 29.76 in - North - - N/A   Unknown
11:54 AM 52.0 °F 33.1 °F 49% 29.76 in - North - - N/A   Unknown
12:54 PM 54.0 °F 32.0 °F 43% 29.80 in - North - - N/A   Unknown
1:54 PM 55.0 °F 28.9 °F 37% 29.74 in - North - - N/A   Unknown
2:54 PM 54.0 °F 28.0 °F 37% 29.71 in - North - - N/A   Unknown
3:54 PM 53.1 °F 30.0 °F 41% 29.74 in - North - - N/A   Unknown
4:54 PM 53.1 °F 28.0 °F 38% 29.77 in - North - - N/A   Unknown
5:54 PM 53.1 °F 28.9 °F 40% 29.79 in - North - - N/A   Unknown
6:54 PM 52.0 °F 30.0 °F 43% 29.83 in - North - - N/A   Unknown
7:54 PM 51.1 °F 30.0 °F 44% 29.85 in - North - - N/A   Unknown
8:54 PM 50.0 °F 28.9 °F 44% 29.83 in - North - - N/A   Unknown
9:54 PM 48.9 °F 30.0 °F 48% 29.89 in - North - - N/A   Unknown
10:54 PM 50.0 °F 30.0 °F 46% 29.90 in - North - - N/A   Unknown
11:54 PM 48.9 °F 30.0 °F 48% 29.90 in - North - - N/A   Unknown